Year,Month,Day,Hour,Minute,Value (Times are PST for insolation in W/m^2)
2014,05,28,00,00,0.00
2014,05,28,00,01,0.00
2014,05,28,00,02,0.00
2014,05,28,00,03,0.00
2014,05,28,00,04,0.00
2014,05,28,00,05,0.00
2014,05,28,00,06,0.00
2014,05,28,00,07,0.00
2014,05,28,00,08,0.00
2014,05,28,00,09,0.00
2014,05,28,00,10,0.00
2014,05,28,00,11,0.00
2014,05,28,00,12,0.00
2014,05,28,00,13,0.00
2014,05,28,00,14,0.00
2014,05,28,00,15,0.00
2014,05,28,00,16,0.00
2014,05,28,00,17,0.00
2014,05,28,00,18,0.00
2014,05,28,00,19,0.00
2014,05,28,00,20,0.00
2014,05,28,00,21,0.00
2014,05,28,00,22,0.00
2014,05,28,00,23,0.00
2014,05,28,00,24,0.00
2014,05,28,00,25,0.00
2014,05,28,00,26,0.00
2014,05,28,00,27,0.00
2014,05,28,00,28,0.00
2014,05,28,00,29,0.00
2014,05,28,00,30,0.00
2014,05,28,00,31,0.00
2014,05,28,00,32,0.00
2014,05,28,00,33,0.00
2014,05,28,00,34,0.00
2014,05,28,00,35,0.00
2014,05,28,00,36,0.00
2014,05,28,00,37,0.00
2014,05,28,00,38,0.00
2014,05,28,00,39,0.00
2014,05,28,00,40,0.00
2014,05,28,00,41,0.00
2014,05,28,00,42,0.00
2014,05,28,00,43,0.00
2014,05,28,00,44,0.00
2014,05,28,00,45,0.00
2014,05,28,00,46,0.00
2014,05,28,00,47,0.00
2014,05,28,00,48,0.00
2014,05,28,00,49,0.00
2014,05,28,00,50,0.00
2014,05,28,00,51,0.00
2014,05,28,00,52,0.00
2014,05,28,00,53,0.00
2014,05,28,00,54,0.00
2014,05,28,00,55,0.00
2014,05,28,00,56,0.00
2014,05,28,00,57,0.00
2014,05,28,00,58,0.00
2014,05,28,00,59,0.00
2014,05,28,01,00,0.00
2014,05,28,01,01,0.00
2014,05,28,01,02,0.00
2014,05,28,01,03,0.00
2014,05,28,01,04,0.00
2014,05,28,01,05,0.00
2014,05,28,01,06,0.00
2014,05,28,01,07,0.00
2014,05,28,01,08,0.00
2014,05,28,01,09,0.00
2014,05,28,01,10,0.00
2014,05,28,01,11,0.00
2014,05,28,01,12,0.00
2014,05,28,01,13,0.00
2014,05,28,01,14,0.00
2014,05,28,01,15,0.00
2014,05,28,01,16,0.00
2014,05,28,01,17,0.00
2014,05,28,01,18,0.00
2014,05,28,01,19,0.00
2014,05,28,01,20,0.00
2014,05,28,01,21,0.00
2014,05,28,01,22,0.00
2014,05,28,01,23,0.00
2014,05,28,01,24,0.00
2014,05,28,01,25,0.00
2014,05,28,01,26,0.00
2014,05,28,01,27,0.00
2014,05,28,01,28,0.00
2014,05,28,01,29,0.00
2014,05,28,01,30,0.00
2014,05,28,01,31,0.00
2014,05,28,01,32,0.00
2014,05,28,01,33,0.00
2014,05,28,01,34,0.00
2014,05,28,01,35,0.00
2014,05,28,01,36,0.00
2014,05,28,01,37,0.00
2014,05,28,01,38,0.00
2014,05,28,01,39,0.00
2014,05,28,01,40,0.00
2014,05,28,01,41,0.00
2014,05,28,01,42,0.00
2014,05,28,01,43,0.00
2014,05,28,01,44,0.00
2014,05,28,01,45,0.00
2014,05,28,01,46,0.00
2014,05,28,01,47,0.00
2014,05,28,01,48,0.00
2014,05,28,01,49,0.00
2014,05,28,01,50,0.00
2014,05,28,01,51,0.00
2014,05,28,01,52,0.00
2014,05,28,01,53,0.00
2014,05,28,01,54,0.00
2014,05,28,01,55,0.00
2014,05,28,01,56,0.00
2014,05,28,01,57,0.00
2014,05,28,01,58,0.00
2014,05,28,01,59,0.00
2014,05,28,02,00,0.00
2014,05,28,02,01,0.00
2014,05,28,02,02,0.00
2014,05,28,02,03,0.00
2014,05,28,02,04,0.00
2014,05,28,02,05,0.00
2014,05,28,02,06,0.00
2014,05,28,02,07,0.00
2014,05,28,02,08,0.00
2014,05,28,02,09,0.00
2014,05,28,02,10,0.00
2014,05,28,02,11,0.00
2014,05,28,02,12,0.00
2014,05,28,02,13,0.00
2014,05,28,02,14,0.00
2014,05,28,02,15,0.00
2014,05,28,02,16,0.00
2014,05,28,02,17,0.00
2014,05,28,02,18,0.00
2014,05,28,02,19,0.00
2014,05,28,02,20,0.00
2014,05,28,02,21,0.00
2014,05,28,02,22,0.00
2014,05,28,02,23,0.00
2014,05,28,02,24,0.00
2014,05,28,02,25,0.00
2014,05,28,02,26,0.00
2014,05,28,02,27,0.00
2014,05,28,02,28,0.00
2014,05,28,02,29,0.00
2014,05,28,02,30,0.00
2014,05,28,02,31,0.00
2014,05,28,02,32,0.00
2014,05,28,02,33,0.00
2014,05,28,02,34,0.00
2014,05,28,02,35,0.00
2014,05,28,02,36,0.00
2014,05,28,02,37,0.00
2014,05,28,02,38,0.00
2014,05,28,02,39,0.00
2014,05,28,02,40,0.00
2014,05,28,02,41,0.00
2014,05,28,02,42,0.00
2014,05,28,02,43,0.00
2014,05,28,02,44,0.00
2014,05,28,02,45,0.00
2014,05,28,02,46,0.00
2014,05,28,02,47,0.00
2014,05,28,02,48,0.00
2014,05,28,02,49,0.00
2014,05,28,02,50,0.00
2014,05,28,02,51,0.00
2014,05,28,02,52,0.00
2014,05,28,02,53,0.00
2014,05,28,02,54,0.00
2014,05,28,02,55,0.00
2014,05,28,02,56,0.00
2014,05,28,02,57,0.00
2014,05,28,02,58,0.00
2014,05,28,02,59,0.00
2014,05,28,03,00,0.00
2014,05,28,03,01,0.00
2014,05,28,03,02,0.00
2014,05,28,03,03,0.00
2014,05,28,03,04,0.00
2014,05,28,03,05,0.00
2014,05,28,03,06,0.00
2014,05,28,03,07,0.00
2014,05,28,03,08,0.00
2014,05,28,03,09,0.00
2014,05,28,03,10,0.00
2014,05,28,03,11,0.00
2014,05,28,03,12,0.00
2014,05,28,03,13,0.00
2014,05,28,03,14,0.00
2014,05,28,03,15,0.00
2014,05,28,03,16,0.00
2014,05,28,03,17,0.00
2014,05,28,03,18,0.00
2014,05,28,03,19,0.00
2014,05,28,03,20,0.00
2014,05,28,03,21,0.00
2014,05,28,03,22,0.00
2014,05,28,03,23,0.00
2014,05,28,03,24,0.00
2014,05,28,03,25,0.00
2014,05,28,03,26,0.00
2014,05,28,03,27,0.00
2014,05,28,03,28,0.00
2014,05,28,03,29,0.00
2014,05,28,03,30,0.00
2014,05,28,03,31,0.00
2014,05,28,03,32,0.00
2014,05,28,03,33,0.00
2014,05,28,03,34,0.00
2014,05,28,03,35,0.00
2014,05,28,03,36,0.00
2014,05,28,03,37,0.00
2014,05,28,03,38,0.00
2014,05,28,03,39,0.00
2014,05,28,03,40,0.00
2014,05,28,03,41,0.00
2014,05,28,03,42,0.00
2014,05,28,03,43,0.00
2014,05,28,03,44,0.00
2014,05,28,03,45,0.00
2014,05,28,03,46,0.00
2014,05,28,03,47,0.00
2014,05,28,03,48,0.00
2014,05,28,03,49,0.00
2014,05,28,03,50,0.00
2014,05,28,03,51,0.00
2014,05,28,03,52,0.00
2014,05,28,03,53,0.00
2014,05,28,03,54,0.00
2014,05,28,03,55,0.00
2014,05,28,03,56,0.00
2014,05,28,03,57,0.00
2014,05,28,03,58,0.00
2014,05,28,03,59,0.00
2014,05,28,04,00,0.00
2014,05,28,04,01,0.00
2014,05,28,04,02,0.00
2014,05,28,04,03,0.00
2014,05,28,04,04,0.00
2014,05,28,04,05,0.00
2014,05,28,04,06,0.00
2014,05,28,04,07,0.00
2014,05,28,04,08,0.00
2014,05,28,04,09,0.00
2014,05,28,04,10,0.00
2014,05,28,04,11,0.00
2014,05,28,04,12,0.00
2014,05,28,04,13,0.00
2014,05,28,04,14,0.00
2014,05,28,04,15,0.00
2014,05,28,04,16,0.00
2014,05,28,04,17,0.00
2014,05,28,04,18,0.00
2014,05,28,04,19,0.00
2014,05,28,04,20,0.00
2014,05,28,04,21,0.00
2014,05,28,04,22,0.00
2014,05,28,04,23,0.00
2014,05,28,04,24,0.00
2014,05,28,04,25,0.00
2014,05,28,04,26,0.00
2014,05,28,04,27,0.00
2014,05,28,04,28,0.00
2014,05,28,04,29,0.00
2014,05,28,04,30,0.00
2014,05,28,04,31,0.00
2014,05,28,04,32,0.00
2014,05,28,04,33,0.00
2014,05,28,04,34,0.00
2014,05,28,04,35,0.00
2014,05,28,04,36,0.00
2014,05,28,04,37,0.00
2014,05,28,04,38,0.00
2014,05,28,04,39,0.00
2014,05,28,04,40,0.00
2014,05,28,04,41,0.00
2014,05,28,04,42,0.00
2014,05,28,04,43,0.00
2014,05,28,04,44,0.00
2014,05,28,04,45,0.00
2014,05,28,04,46,0.00
2014,05,28,04,47,0.00
2014,05,28,04,48,0.00
2014,05,28,04,49,0.00
2014,05,28,04,50,0.00
2014,05,28,04,51,0.00
2014,05,28,04,52,0.00
2014,05,28,04,53,0.00
2014,05,28,04,54,0.00
2014,05,28,04,55,0.00
2014,05,28,04,56,0.00
2014,05,28,04,57,0.00
2014,05,28,04,58,0.00
2014,05,28,04,59,0.00
2014,05,28,05,00,0.00
2014,05,28,05,01,0.00
2014,05,28,05,02,0.00
2014,05,28,05,03,0.00
2014,05,28,05,04,0.00
2014,05,28,05,05,0.00
2014,05,28,05,06,0.00
2014,05,28,05,07,0.00
2014,05,28,05,08,0.00
2014,05,28,05,09,0.00
2014,05,28,05,10,0.00
2014,05,28,05,11,0.00
2014,05,28,05,12,0.00
2014,05,28,05,13,0.00
2014,05,28,05,14,0.00
2014,05,28,05,15,0.00
2014,05,28,05,16,0.00
2014,05,28,05,17,0.00
2014,05,28,05,18,0.00
2014,05,28,05,19,0.00
2014,05,28,05,20,0.00
2014,05,28,05,21,0.00
2014,05,28,05,22,0.00
2014,05,28,05,23,0.00
2014,05,28,05,24,3.00
2014,05,28,05,25,5.00
2014,05,28,05,26,5.00
2014,05,28,05,27,5.00
2014,05,28,05,28,5.00
2014,05,28,05,29,5.00
2014,05,28,05,30,6.20
2014,05,28,05,31,7.00
2014,05,28,05,32,7.00
2014,05,28,05,33,7.00
2014,05,28,05,34,7.70
2014,05,28,05,35,9.00
2014,05,28,05,36,9.00
2014,05,28,05,37,9.00
2014,05,28,05,38,9.00
2014,05,28,05,39,9.50
2014,05,28,05,40,11.00
2014,05,28,05,41,11.50
2014,05,28,05,42,13.40
2014,05,28,05,43,15.60
2014,05,28,05,44,16.20
2014,05,28,05,45,18.00
2014,05,28,05,46,18.00
2014,05,28,05,47,18.50
2014,05,28,05,48,19.00
2014,05,28,05,49,19.00
2014,05,28,05,50,20.90
2014,05,28,05,51,21.50
2014,05,28,05,52,23.90
2014,05,28,05,53,25.00
2014,05,28,05,54,25.70
2014,05,28,05,55,27.70
2014,05,28,05,56,28.00
2014,05,28,05,57,28.60
2014,05,28,05,58,30.90
2014,05,28,05,59,32.00
2014,05,28,06,00,32.70
2014,05,28,06,01,33.00
2014,05,28,06,02,37.30
2014,05,28,06,03,39.00
2014,05,28,06,04,40.30
2014,05,28,06,05,44.30
2014,05,28,06,06,46.00
2014,05,28,06,07,52.10
2014,05,28,06,08,54.00
2014,05,28,06,09,52.40
2014,05,28,06,10,46.60
2014,05,28,06,11,42.80
2014,05,28,06,12,43.50
2014,05,28,06,13,44.00
2014,05,28,06,14,44.00
2014,05,28,06,15,44.00
2014,05,28,06,16,44.00
2014,05,28,06,17,44.00
2014,05,28,06,18,44.00
2014,05,28,06,19,45.90
2014,05,28,06,20,48.40
2014,05,28,06,21,52.20
2014,05,28,06,22,52.10
2014,05,28,06,23,63.80
2014,05,28,06,24,77.40
2014,05,28,06,25,94.90
2014,05,28,06,26,69.00
2014,05,28,06,27,58.00
2014,05,28,06,28,58.00
2014,05,28,06,29,65.50
2014,05,28,06,30,88.60
2014,05,28,06,31,87.90
2014,05,28,06,32,130.00
2014,05,28,06,33,115.50
2014,05,28,06,34,107.10
2014,05,28,06,35,91.50
2014,05,28,06,36,79.00
2014,05,28,06,37,82.50
2014,05,28,06,38,117.50
2014,05,28,06,39,144.50
2014,05,28,06,40,135.00
2014,05,28,06,41,106.70
2014,05,28,06,42,96.70
2014,05,28,06,43,100.00
2014,05,28,06,44,100.00
2014,05,28,06,45,114.70
2014,05,28,06,46,119.60
2014,05,28,06,47,111.00
2014,05,28,06,48,114.30
2014,05,28,06,49,133.00
2014,05,28,06,50,153.30
2014,05,28,06,51,147.90
2014,05,28,06,52,210.10
2014,05,28,06,53,203.50
2014,05,28,06,54,199.10
2014,05,28,06,55,198.30
2014,05,28,06,56,175.00
2014,05,28,06,57,238.50
2014,05,28,06,58,249.70
2014,05,28,06,59,257.80
2014,05,28,07,00,261.80
2014,05,28,07,01,264.20
2014,05,28,07,02,265.80
2014,05,28,07,03,267.00
2014,05,28,07,04,267.00
2014,05,28,07,05,265.30
2014,05,28,07,06,265.00
2014,05,28,07,07,263.80
2014,05,28,07,08,264.70
2014,05,28,07,09,272.00
2014,05,28,07,10,256.00
2014,05,28,07,11,250.00
2014,05,28,07,12,245.90
2014,05,28,07,13,252.60
2014,05,28,07,14,241.00
2014,05,28,07,15,242.10
2014,05,28,07,16,243.00
2014,05,28,07,17,243.00
2014,05,28,07,18,194.00
2014,05,28,07,19,169.30
2014,05,28,07,20,186.00
2014,05,28,07,21,221.50
2014,05,28,07,22,249.50
2014,05,28,07,23,254.50
2014,05,28,07,24,257.50
2014,05,28,07,25,261.20
2014,05,28,07,26,264.50
2014,05,28,07,27,265.00
2014,05,28,07,28,265.00
2014,05,28,07,29,260.70
2014,05,28,07,30,169.50
2014,05,28,07,31,171.70
2014,05,28,07,32,193.00
2014,05,28,07,33,208.50
2014,05,28,07,34,236.40
2014,05,28,07,35,266.20
2014,05,28,07,36,262.40
2014,05,28,07,37,257.00
2014,05,28,07,38,261.80
2014,05,28,07,39,272.70
2014,05,28,07,40,288.40
2014,05,28,07,41,289.60
2014,05,28,07,42,284.70
2014,05,28,07,43,289.20
2014,05,28,07,44,294.80
2014,05,28,07,45,301.00
2014,05,28,07,46,320.60
2014,05,28,07,47,329.70
2014,05,28,07,48,329.80
2014,05,28,07,49,332.00
2014,05,28,07,50,287.10
2014,05,28,07,51,246.00
2014,05,28,07,52,246.00
2014,05,28,07,53,119.00
2014,05,28,07,54,112.50
2014,05,28,07,55,107.10
2014,05,28,07,56,99.70
2014,05,28,07,57,121.70
2014,05,28,07,58,140.60
2014,05,28,07,59,166.70
2014,05,28,08,00,165.00
2014,05,28,08,01,165.00
2014,05,28,08,02,254.70
2014,05,28,08,03,326.90
2014,05,28,08,04,329.00
2014,05,28,08,05,329.00
2014,05,28,08,06,329.00
2014,05,28,08,07,329.00
2014,05,28,08,08,350.90
2014,05,28,08,09,366.00
2014,05,28,08,10,366.00
2014,05,28,08,11,366.00
2014,05,28,08,12,366.00
2014,05,28,08,13,353.70
2014,05,28,08,14,341.50
2014,05,28,08,15,343.00
2014,05,28,08,16,334.80
2014,05,28,08,17,348.10
2014,05,28,08,18,393.20
2014,05,28,08,19,400.50
2014,05,28,08,20,413.40
2014,05,28,08,21,411.00
2014,05,28,08,22,340.20
2014,05,28,08,23,271.30
2014,05,28,08,24,231.20
2014,05,28,08,25,190.00
2014,05,28,08,26,172.00
2014,05,28,08,27,163.30
2014,05,28,08,28,156.30
2014,05,28,08,29,156.50
2014,05,28,08,30,159.90
2014,05,28,08,31,167.00
2014,05,28,08,32,176.20
2014,05,28,08,33,188.00
2014,05,28,08,34,200.30
2014,05,28,08,35,214.70
2014,05,28,08,36,229.00
2014,05,28,08,37,249.60
2014,05,28,08,38,329.30
2014,05,28,08,39,438.40
2014,05,28,08,40,461.80
2014,05,28,08,41,475.10
2014,05,28,08,42,492.90
2014,05,28,08,43,497.00
2014,05,28,08,44,497.00
2014,05,28,08,45,504.80
2014,05,28,08,46,527.00
2014,05,28,08,47,527.00
2014,05,28,08,48,514.70
2014,05,28,08,49,497.00
2014,05,28,08,50,367.70
2014,05,28,08,51,322.00
2014,05,28,08,52,344.30
2014,05,28,08,53,439.00
2014,05,28,08,54,391.30
2014,05,28,08,55,334.00
2014,05,28,08,56,334.00
2014,05,28,08,57,241.30
2014,05,28,08,58,236.00
2014,05,28,08,59,235.40
2014,05,28,09,00,234.00
2014,05,28,09,01,235.30
2014,05,28,09,02,236.00
2014,05,28,09,03,294.20
2014,05,28,09,04,297.00
2014,05,28,09,05,264.00
2014,05,28,09,06,203.00
2014,05,28,09,07,205.20
2014,05,28,09,08,209.90
2014,05,28,09,09,229.10
2014,05,28,09,10,245.70
2014,05,28,09,11,276.10
2014,05,28,09,12,243.00
2014,05,28,09,13,243.00
2014,05,28,09,14,481.40
2014,05,28,09,15,521.50
2014,05,28,09,16,462.00
2014,05,28,09,17,462.00
2014,05,28,09,18,462.00
2014,05,28,09,19,334.10
2014,05,28,09,20,343.90
2014,05,28,09,21,366.30
2014,05,28,09,22,481.80
2014,05,28,09,23,548.10
2014,05,28,09,24,555.00
2014,05,28,09,25,485.20
2014,05,28,09,26,455.40
2014,05,28,09,27,455.00
2014,05,28,09,28,455.00
2014,05,28,09,29,502.40
2014,05,28,09,30,564.00
2014,05,28,09,31,564.00
2014,05,28,09,32,542.20
2014,05,28,09,33,542.70
2014,05,28,09,34,541.00
2014,05,28,09,35,515.20
2014,05,28,09,36,488.20
2014,05,28,09,37,469.40
2014,05,28,09,38,464.00
2014,05,28,09,39,464.00
2014,05,28,09,40,497.00
2014,05,28,09,41,573.60
2014,05,28,09,42,604.30
2014,05,28,09,43,613.00
2014,05,28,09,44,654.00
2014,05,28,09,45,656.00
2014,05,28,09,46,656.00
2014,05,28,09,47,656.00
2014,05,28,09,48,656.00
2014,05,28,09,49,656.00
2014,05,28,09,50,656.00
2014,05,28,09,51,646.90
2014,05,28,09,52,609.10
2014,05,28,09,53,592.00
2014,05,28,09,54,592.00
2014,05,28,09,55,593.70
2014,05,28,09,56,562.70
2014,05,28,09,57,555.80
2014,05,28,09,58,535.10
2014,05,28,09,59,526.00
2014,05,28,10,00,526.00
2014,05,28,10,01,526.00
2014,05,28,10,02,505.10
2014,05,28,10,03,366.00
2014,05,28,10,04,445.50
2014,05,28,10,05,578.80
2014,05,28,10,06,640.60
2014,05,28,10,07,654.00
2014,05,28,10,08,660.40
2014,05,28,10,09,700.10
2014,05,28,10,10,724.00
2014,05,28,10,11,724.00
2014,05,28,10,12,769.80
2014,05,28,10,13,786.00
2014,05,28,10,14,786.00
2014,05,28,10,15,785.30
2014,05,28,10,16,783.10
2014,05,28,10,17,780.80
2014,05,28,10,18,780.00
2014,05,28,10,19,723.50
2014,05,28,10,20,701.80
2014,05,28,10,21,705.00
2014,05,28,10,22,705.00
2014,05,28,10,23,705.00
2014,05,28,10,24,678.40
2014,05,28,10,25,678.70
2014,05,28,10,26,681.60
2014,05,28,10,27,688.60
2014,05,28,10,28,676.40
2014,05,28,10,29,663.70
2014,05,28,10,30,664.00
2014,05,28,10,31,664.00
2014,05,28,10,32,664.00
2014,05,28,10,33,607.20
2014,05,28,10,34,498.30
2014,05,28,10,35,442.30
2014,05,28,10,36,472.40
2014,05,28,10,37,471.50
2014,05,28,10,38,457.00
2014,05,28,10,39,457.00
2014,05,28,10,40,392.10
2014,05,28,10,41,338.00
2014,05,28,10,42,469.70
2014,05,28,10,43,495.20
2014,05,28,10,44,499.00
2014,05,28,10,45,490.00
2014,05,28,10,46,458.30
2014,05,28,10,47,391.50
2014,05,28,10,48,432.20
2014,05,28,10,49,483.30
2014,05,28,10,50,474.30
2014,05,28,10,51,472.80
2014,05,28,10,52,468.30
2014,05,28,10,53,464.00
2014,05,28,10,54,464.00
2014,05,28,10,55,473.30
2014,05,28,10,56,514.80
2014,05,28,10,57,519.00
2014,05,28,10,58,519.00
2014,05,28,10,59,519.80
2014,05,28,11,00,506.60
2014,05,28,11,01,531.00
2014,05,28,11,02,520.80
2014,05,28,11,03,493.60
2014,05,28,11,04,485.00
2014,05,28,11,05,485.00
2014,05,28,11,06,485.00
2014,05,28,11,07,483.20
2014,05,28,11,08,476.20
2014,05,28,11,09,462.00
2014,05,28,11,10,441.30
2014,05,28,11,11,436.00
2014,05,28,11,12,438.20
2014,05,28,11,13,461.70
2014,05,28,11,14,463.60
2014,05,28,11,15,452.00
2014,05,28,11,16,501.50
2014,05,28,11,17,520.00
2014,05,28,11,18,547.30
2014,05,28,11,19,578.40
2014,05,28,11,20,630.10
2014,05,28,11,21,640.00
2014,05,28,11,22,640.00
2014,05,28,11,23,638.50
2014,05,28,11,24,603.00
2014,05,28,11,25,604.70
2014,05,28,11,26,667.10
2014,05,28,11,27,717.40
2014,05,28,11,28,746.10
2014,05,28,11,29,749.00
2014,05,28,11,30,754.50
2014,05,28,11,31,749.90
2014,05,28,11,32,793.00
2014,05,28,11,33,837.60
2014,05,28,11,34,862.20
2014,05,28,11,35,873.30
2014,05,28,11,36,877.00
2014,05,28,11,37,877.00
2014,05,28,11,38,877.00
2014,05,28,11,39,877.00
2014,05,28,11,40,877.00
2014,05,28,11,41,877.00
2014,05,28,11,42,877.00
2014,05,28,11,43,877.00
2014,05,28,11,44,875.40
2014,05,28,11,45,874.00
2014,05,28,11,46,891.00
2014,05,28,11,47,880.70
2014,05,28,11,48,870.00
2014,05,28,11,49,870.00
2014,05,28,11,50,870.00
2014,05,28,11,51,903.40
2014,05,28,11,52,918.80
2014,05,28,11,53,921.50
2014,05,28,11,54,927.60
2014,05,28,11,55,939.20
2014,05,28,11,56,951.40
2014,05,28,11,57,962.30
2014,05,28,11,58,968.30
2014,05,28,11,59,970.90
2014,05,28,12,00,984.00
2014,05,28,12,01,984.00
2014,05,28,12,02,984.00
2014,05,28,12,03,833.50
2014,05,28,12,04,777.00
2014,05,28,12,05,777.00
2014,05,28,12,06,777.00
2014,05,28,12,07,777.00
2014,05,28,12,08,746.90
2014,05,28,12,09,726.00
2014,05,28,12,10,774.70
2014,05,28,12,11,790.00
2014,05,28,12,12,822.00
2014,05,28,12,13,812.50
2014,05,28,12,14,824.00
2014,05,28,12,15,873.10
2014,05,28,12,16,910.00
2014,05,28,12,17,902.50
2014,05,28,12,18,865.20
2014,05,28,12,19,842.50
2014,05,28,12,20,810.00
2014,05,28,12,21,810.00
2014,05,28,12,22,827.90
2014,05,28,12,23,1017.60
2014,05,28,12,24,1023.00
2014,05,28,12,25,1023.00
2014,05,28,12,26,1016.20
2014,05,28,12,27,1013.00
2014,05,28,12,28,1013.00
2014,05,28,12,29,923.50
2014,05,28,12,30,604.80
2014,05,28,12,31,546.70
2014,05,28,12,32,519.00
2014,05,28,12,33,519.00
2014,05,28,12,34,519.00
2014,05,28,12,35,594.70
2014,05,28,12,36,770.50
2014,05,28,12,37,715.00
2014,05,28,12,38,715.00
2014,05,28,12,39,323.40
2014,05,28,12,40,233.50
2014,05,28,12,41,227.50
2014,05,28,12,42,221.00
2014,05,28,12,43,209.00
2014,05,28,12,44,191.20
2014,05,28,12,45,179.40
2014,05,28,12,46,170.10
2014,05,28,12,47,164.40
2014,05,28,12,48,162.60
2014,05,28,12,49,162.60
2014,05,28,12,50,167.60
2014,05,28,12,51,173.30
2014,05,28,12,52,182.50
2014,05,28,12,53,193.20
2014,05,28,12,54,200.00
2014,05,28,12,55,212.40
2014,05,28,12,56,221.00
2014,05,28,12,57,238.00
2014,05,28,12,58,255.50
2014,05,28,12,59,265.00
2014,05,28,13,00,269.40
2014,05,28,13,01,275.90
2014,05,28,13,02,296.00
2014,05,28,13,03,321.40
2014,05,28,13,04,374.00
2014,05,28,13,05,374.00
2014,05,28,13,06,374.00
2014,05,28,13,07,374.00
2014,05,28,13,08,266.00
2014,05,28,13,09,235.00
2014,05,28,13,10,224.60
2014,05,28,13,11,221.80
2014,05,28,13,12,220.00
2014,05,28,13,13,215.10
2014,05,28,13,14,213.00
2014,05,28,13,15,206.30
2014,05,28,13,16,206.00
2014,05,28,13,17,206.00
2014,05,28,13,18,212.80
2014,05,28,13,19,225.50
2014,05,28,13,20,235.60
2014,05,28,13,21,248.00
2014,05,28,13,22,250.70
2014,05,28,13,23,260.30
2014,05,28,13,24,260.30
2014,05,28,13,25,258.00
2014,05,28,13,26,258.00
2014,05,28,13,27,265.80
2014,05,28,13,28,274.20
2014,05,28,13,29,285.10
2014,05,28,13,30,298.50
2014,05,28,13,31,323.20
2014,05,28,13,32,330.00
2014,05,28,13,33,388.90
2014,05,28,13,34,742.00
2014,05,28,13,35,742.00
2014,05,28,13,36,491.50
2014,05,28,13,37,343.50
2014,05,28,13,38,316.30
2014,05,28,13,39,346.00
2014,05,28,13,40,315.60
2014,05,28,13,41,248.30
2014,05,28,13,42,249.10
2014,05,28,13,43,251.90
2014,05,28,13,44,258.00
2014,05,28,13,45,272.00
2014,05,28,13,46,272.00
2014,05,28,13,47,272.00
2014,05,28,13,48,272.00
2014,05,28,13,49,272.00
2014,05,28,13,50,272.00
2014,05,28,13,51,272.00
2014,05,28,13,52,272.00
2014,05,28,13,53,683.10
2014,05,28,13,54,1060.00
2014,05,28,13,55,476.30
2014,05,28,13,56,335.80
2014,05,28,13,57,303.20
2014,05,28,13,58,305.10
2014,05,28,13,59,311.00
2014,05,28,14,00,311.00
2014,05,28,14,01,311.00
2014,05,28,14,02,1008.60
2014,05,28,14,03,964.50
2014,05,28,14,04,1002.00
2014,05,28,14,05,1002.00
2014,05,28,14,06,978.70
2014,05,28,14,07,951.70
2014,05,28,14,08,928.00
2014,05,28,14,09,928.00
2014,05,28,14,10,921.70
2014,05,28,14,11,912.20
2014,05,28,14,12,904.50
2014,05,28,14,13,904.30
2014,05,28,14,14,919.30
2014,05,28,14,15,928.00
2014,05,28,14,16,926.40
2014,05,28,14,17,916.40
2014,05,28,14,18,913.60
2014,05,28,14,19,907.90
2014,05,28,14,20,878.50
2014,05,28,14,21,884.00
2014,05,28,14,22,882.50
2014,05,28,14,23,881.00
2014,05,28,14,24,870.80
2014,05,28,14,25,851.30
2014,05,28,14,26,837.60
2014,05,28,14,27,844.90
2014,05,28,14,28,847.70
2014,05,28,14,29,852.40
2014,05,28,14,30,858.00
2014,05,28,14,31,858.00
2014,05,28,14,32,858.00
2014,05,28,14,33,858.00
2014,05,28,14,34,850.70
2014,05,28,14,35,850.70
2014,05,28,14,36,854.00
2014,05,28,14,37,863.10
2014,05,28,14,38,868.40
2014,05,28,14,39,872.00
2014,05,28,14,40,865.80
2014,05,28,14,41,858.80
2014,05,28,14,42,858.00
2014,05,28,14,43,858.00
2014,05,28,14,44,851.70
2014,05,28,14,45,830.00
2014,05,28,14,46,840.70
2014,05,28,14,47,855.40
2014,05,28,14,48,856.00
2014,05,28,14,49,855.30
2014,05,28,14,50,851.00
2014,05,28,14,51,849.50
2014,05,28,14,52,846.40
2014,05,28,14,53,846.00
2014,05,28,14,54,844.30
2014,05,28,14,55,843.30
2014,05,28,14,56,840.00
2014,05,28,14,57,839.00
2014,05,28,14,58,838.00
2014,05,28,14,59,837.20
2014,05,28,15,00,837.00
2014,05,28,15,01,837.00
2014,05,28,15,02,836.30
2014,05,28,15,03,835.00
2014,05,28,15,04,835.00
2014,05,28,15,05,835.00
2014,05,28,15,06,835.20
2014,05,28,15,07,836.60
2014,05,28,15,08,833.40
2014,05,28,15,09,832.10
2014,05,28,15,10,831.70
2014,05,28,15,11,831.00
2014,05,28,15,12,830.00
2014,05,28,15,13,830.20
2014,05,28,15,14,831.00
2014,05,28,15,15,831.00
2014,05,28,15,16,831.00
2014,05,28,15,17,834.30
2014,05,28,15,18,836.90
2014,05,28,15,19,837.00
2014,05,28,15,20,837.00
2014,05,28,15,21,838.70
2014,05,28,15,22,838.60
2014,05,28,15,23,838.00
2014,05,28,15,24,808.40
2014,05,28,15,25,780.00
2014,05,28,15,26,781.70
2014,05,28,15,27,730.00
2014,05,28,15,28,712.00
2014,05,28,15,29,764.70
2014,05,28,15,30,796.70
2014,05,28,15,31,795.50
2014,05,28,15,32,775.00
2014,05,28,15,33,808.50
2014,05,28,15,34,760.50
2014,05,28,15,35,683.90
2014,05,28,15,36,675.00
2014,05,28,15,37,726.50
2014,05,28,15,38,822.00
2014,05,28,15,39,818.60
2014,05,28,15,40,818.60
2014,05,28,15,41,814.70
2014,05,28,15,42,815.70
2014,05,28,15,43,802.70
2014,05,28,15,44,792.60
2014,05,28,15,45,787.30
2014,05,28,15,46,801.50
2014,05,28,15,47,793.50
2014,05,28,15,48,779.00
2014,05,28,15,49,795.40
2014,05,28,15,50,821.00
2014,05,28,15,51,831.90
2014,05,28,15,52,830.00
2014,05,28,15,53,777.30
2014,05,28,15,54,754.50
2014,05,28,15,55,687.90
2014,05,28,15,56,679.00
2014,05,28,15,57,679.00
2014,05,28,15,58,459.30
2014,05,28,15,59,413.00
2014,05,28,16,00,535.10
2014,05,28,16,01,875.20
2014,05,28,16,02,867.00
2014,05,28,16,03,867.00
2014,05,28,16,04,840.30
2014,05,28,16,05,810.10
2014,05,28,16,06,795.70
2014,05,28,16,07,746.40
2014,05,28,16,08,691.00
2014,05,28,16,09,691.00
2014,05,28,16,10,767.00
2014,05,28,16,11,772.50
2014,05,28,16,12,735.80
2014,05,28,16,13,722.10
2014,05,28,16,14,717.00
2014,05,28,16,15,705.40
2014,05,28,16,16,699.00
2014,05,28,16,17,715.70
2014,05,28,16,18,732.20
2014,05,28,16,19,756.50
2014,05,28,16,20,763.00
2014,05,28,16,21,770.50
2014,05,28,16,22,778.80
2014,05,28,16,23,786.50
2014,05,28,16,24,791.40
2014,05,28,16,25,800.50
2014,05,28,16,26,812.00
2014,05,28,16,27,796.40
2014,05,28,16,28,752.00
2014,05,28,16,29,345.70
2014,05,28,16,30,354.30
2014,05,28,16,31,343.50
2014,05,28,16,32,334.00
2014,05,28,16,33,345.00
2014,05,28,16,34,348.00
2014,05,28,16,35,348.00
2014,05,28,16,36,332.20
2014,05,28,16,37,306.00
2014,05,28,16,38,303.30
2014,05,28,16,39,302.00
2014,05,28,16,40,313.60
2014,05,28,16,41,301.20
2014,05,28,16,42,299.80
2014,05,28,16,43,340.80
2014,05,28,16,44,351.00
2014,05,28,16,45,294.70
2014,05,28,16,46,279.00
2014,05,28,16,47,282.80
2014,05,28,16,48,296.30
2014,05,28,16,49,302.00
2014,05,28,16,50,302.00
2014,05,28,16,51,302.00
2014,05,28,16,52,302.00
2014,05,28,16,53,306.30
2014,05,28,16,54,316.00
2014,05,28,16,55,316.00
2014,05,28,16,56,326.00
2014,05,28,16,57,317.70
2014,05,28,16,58,334.00
2014,05,28,16,59,334.00
2014,05,28,17,00,334.00
2014,05,28,17,01,314.90
2014,05,28,17,02,305.50
2014,05,28,17,03,297.80
2014,05,28,17,04,300.60
2014,05,28,17,05,317.20
2014,05,28,17,06,353.70